This demonstration page uses our WeatherBlox Daily Observations layout. Learn more.

Left ArrowRight Arrow

36.17497, -115.13722

Hourly Observations for April 14, 2020

Temp ( °F °C ) Dew Point ( °F °C ) Humidity (%) Winds ( mph kmh ) Pressure ( in mb ) Visibility ( mi km ) Precip ( " mm )
12:53 am 00:53 Clear 61 16.1 4 -15.6 10 10 N 12 19 30.15 1021 10 16 N/A
1:53 am 01:53 Clear 59 15 5 -15 11 11 NNE 8 13 30.17 1022 10 16 N/A
2:53 am 02:53 Clear 57 13.9 6 -14.4 13 13 N 13 20 30.18 1022 10 16 N/A
3:53 am 03:53 Clear 55 12.8 8 -13.3 15 15 NE 7 11 30.20 1023 10 16 N/A
4:53 am 04:53 Clear 54 12.2 7 -13.9 15 15 ENE 8 13 30.24 1024 10 16 N/A
5:53 am 05:53 Clear 54 12.2 8 -13.3 16 16 VRB 5 7 30.26 1025 10 16 N/A
6:53 am 06:53 Sunny 54 12.2 9 -12.8 16 16 NNW 9 15 30.29 1026 10 16 N/A
7:53 am 07:53 Sunny 56 13.3 10 -12.2 16 16 NNW 9 15 30.30 1026 10 16 N/A
8:53 am 08:53 Sunny 59 15 9 -12.8 13 13 NW 9 15 30.31 1027 10 16 N/A
9:53 am 09:53 Sunny 60 15.6 9 -12.8 13 13 VRB 6 9 30.32 1027 10 16 N/A
10:53 am 10:53 Sunny 63 17.2 6 -14.4 10 10 E 12 19 30.30 1026 10 16 N/A
11:53 am 11:53 Sunny 64 17.8 5 -15 9 9 ESE 10 17 30.27 1025 10 16 N/A
12:53 pm 12:53 Sunny 65 18.3 7 -13.9 10 10 undefined N/A 30.25 1024 10 16 N/A
1:53 pm 13:53 Sunny 66 18.9 8 -13.3 10 10 VRB 3 6 30.22 1023 10 16 N/A
2:53 pm 14:53 Sunny 68 20 6 -14.4 9 9 ESE 7 11 30.19 1022 10 16 N/A
3:53 pm 15:53 Sunny 69 20.6 7 -13.9 9 9 VRB 3 6 30.16 1021 10 16 N/A
4:53 pm 16:53 Sunny 69 20.6 7 -13.9 9 9 E 10 17 30.14 1021 10 16 N/A
5:53 pm 17:53 Sunny 68 20 6 -14.4 9 9 E 5 7 30.14 1021 10 16 N/A
6:53 pm 18:53 Sunny 67 19.4 6 -14.4 9 9 SE 8 13 30.14 1021 10 16 N/A
7:53 pm 19:53 Clear 65 18.3 8 -13.3 10 10 ESE 6 9 30.14 1021 10 16 N/A
8:53 pm 20:53 Clear 64 17.8 9 -12.8 11 11 S 5 7 30.16 1021 10 16 N/A
9:53 pm 21:53 Clear 61 16.1 13 -10.6 15 15 W 3 6 30.17 1022 10 16 N/A
10:53 pm 22:53 Clear 58 14.4 16 -8.9 19 19 NNW 5 7 30.17 1022 10 16 N/A
11:53 pm 23:53 Clear 56 13.3 16 -8.9 21 21 NW 6 9 30.17 1022 10 16 N/A

Powered by AerisWeather